FENGYUN 1C DEB

Satellite information

Favourite Embed

Satellite Type and Status

DEBRISIN ORBIT

Key statistics

Satellite FENGYUN 1C DEB at a glance.

Uptime

9555

Days in orbit

Revolutions

≈ 14.3

Per day

Orbit

SSO

Sun Synchronous Orbit

Inclination

98.9

Latest

Satellite identification and parameters

Extended collection of information and parameters for FENGYUN 1C DEB.

Object identification

Identified? True

Debris? True

Object name: FENGYUN 1C DEB

International designator: 1999-025YM

Object number (NORAD): 30276

Object ID (CCSDS): 30276

Country: PEOPLES REPUBLIC OF CHINA (PRC)

Current information (Y/N): Y

RCS size: SMALL

Orbital parameters

Period: 100.992 minutes

Inclination: 98.8698 deg

SMA: 7183.768 km

Apoapsis: 824.731 km

Periapsis: 786.536 km

RAAN: 256.7675 deg

Eccentricy: 0.0026584

Argument of periapsis: 185.7002 deg

Mean anomaly: 174.3878 deg

Mean motion: 14.25851462 rev/day

Mean motion (dot): 0.0000229 rev/day2

B* drag term: 0.00097795 1/REarth

Two-line elements (TLE)

Creation date: July 6, 2025, 6:05 p.m.

Reference frame: TEME

Reference center: EARTH

Epoch: July 6, 2025, 3:17 a.m. UTC

TLE line 0: 0 FENGYUN 1C DEB

TLE line 1: 1 30276U 99025YM 25187.13715803 .00002290 00000-0 97795-3 0 9997

TLE line 2: 2 30276 98.8698 256.7675 0026584 185.7002 174.3878 14.25851462952556

Live tracking on map

Real-time ground track for satellite FENGYUN 1C DEB.

In-orbit conjunctions

A list of the most updated potential collisions computed for object FENGYUN 1C DEB.

Target Orbit TCA Probability of collision Miss distance Type
SL-3 DEB LEO 2024-12-12 19:27:11 0.0001271684 175.0 (m) DEBRIS
COSMOS 2251 DEB LEO 2024-08-12 16:03:56 0.0001566875 422.0 (m) DEBRIS
NOAA 16 DEB SSO 2024-07-19 08:16:01 0.0001392541 177.0 (m) DEBRIS

Associated space launch

Chinese polar orbiting meteorological satellite

FENGYUN 1C DEB was lifted into orbit during the mission ‘Long March 4B | Feng Yun 1C’, on board a Long March 4B space rocket.

The launch took place on May 10, 1999, 1:33 a.m. from Launch Complex 7.

For more information about the launch, click the button.

Launch to space Long March 4B | Feng Yun 1C
Long March 4B | Feng Yun 1C

Agency: N/A

Status: Launch Successful

Launch date: May 10, 1999, 1:33 a.m. UTC

Rocket: Long March 4B

Launch pad: Launch Complex 7

Location: Taiyuan Satellite Launch Center, People's Republic of China

...

Latest news about this satellite

There are no fresh news available about this satellite. Check back as we update our databases every day.


Newsletter sign-up

Weekly statistics, charts and insights to help you stay on top of the space industry.